BRU619 UMMS-UUEE

Flight info

Callsign BRU619
Flight time 1h 4m
Altitude 39000
Route AGNEF2F AGNEF N869 RATIN L999 AGLAN M864 DIPOP DIPOP3F
Aircraft A20N/M-SDE2E3FGHIRWXY/LB1

Departure

Time 2026-05-05 20:05
Airport Minsk National Airport (UMMS)

Arrival

Time 2026-05-05 21:09
Airport Sheremetyevo International Airport (UUEE)
Time Latitude Longitude Altitude Speed Heading
2026-05-05 19:36 53.88777 28.03608 638 ft 0 kts 318°
2026-05-05 19:58 53.88777 28.03607 635 ft 0 kts 318°
2026-05-05 19:59 53.88785 28.03594 640 ft 4 kts 318°
2026-05-05 19:59 53.88814 28.03572 635 ft 5 kts
2026-05-05 19:59 53.88851 28.03618 639 ft 8 kts 40°
2026-05-05 19:59 53.88899 28.03697 635 ft 11 kts 45°
2026-05-05 20:00 53.88912 28.03821 635 ft 13 kts 116°
2026-05-05 20:00 53.88858 28.03963 643 ft 16 kts 134°
2026-05-05 20:00 53.88821 28.04118 635 ft 15 kts 64°
2026-05-05 20:00 53.88892 28.04260 635 ft 17 kts 46°
2026-05-05 20:01 53.88976 28.04421 635 ft 19 kts 54°
2026-05-05 20:01 53.89066 28.04604 635 ft 21 kts 49°
2026-05-05 20:01 53.89165 28.04801 639 ft 21 kts 49°
2026-05-05 20:01 53.89152 28.04951 635 ft 14 kts 131°
2026-05-05 20:02 53.89072 28.05075 637 ft 17 kts 139°
2026-05-05 20:02 53.88973 28.05222 635 ft 20 kts 139°
2026-05-05 20:02 53.88860 28.05390 638 ft 23 kts 138°
2026-05-05 20:02 53.88734 28.05577 635 ft 25 kts 139°
2026-05-05 20:03 53.88598 28.05781 635 ft 27 kts 138°
2026-05-05 20:03 53.88452 28.06000 635 ft 29 kts 139°
2026-05-05 20:03 53.88294 28.06231 635 ft 31 kts 139°
2026-05-05 20:03 53.88130 28.06475 635 ft 31 kts 139°
2026-05-05 20:04 53.87997 28.06676 635 ft 23 kts 137°
2026-05-05 20:04 53.87953 28.06841 640 ft 15 kts 67°
2026-05-05 20:04 53.88029 28.06967 636 ft 16 kts
2026-05-05 20:04 53.88236 28.06723 635 ft 68 kts 320°
2026-05-05 20:05 53.88755 28.05953 634 ft 127 kts 318°
2026-05-05 20:05 53.89520 28.04830 880 ft 150 kts 319°
2026-05-05 20:05 53.90292 28.03673 1538 ft 151 kts 318°
2026-05-05 20:05 53.91119 28.02440 2049 ft 162 kts 318°
2026-05-05 20:06 53.91980 28.01165 2702 ft 171 kts 317°
2026-05-05 20:06 53.92924 27.99765 3259 ft 190 kts 317°
2026-05-05 20:06 53.93993 27.98230 3795 ft 214 kts 325°
2026-05-05 20:06 53.95484 27.97421 4382 ft 242 kts 355°
2026-05-05 20:07 53.97248 27.97653 4982 ft 268 kts
2026-05-05 20:07 53.99144 27.98335 5693 ft 285 kts 10°
2026-05-05 20:07 54.01103 27.99103 6653 ft 291 kts
2026-05-05 20:07 54.03094 27.99852 7676 ft 296 kts 13°
2026-05-05 20:08 54.04922 28.01447 8652 ft 307 kts 38°
2026-05-05 20:08 54.06270 28.04300 9584 ft 316 kts 64°
2026-05-05 20:08 54.06865 28.07932 10319 ft 327 kts 88°
2026-05-05 20:08 54.06835 28.11924 10709 ft 349 kts 97°
2026-05-05 20:09 54.06605 28.16153 11202 ft 366 kts 98°
2026-05-05 20:09 54.06411 28.20508 12049 ft 372 kts 96°
2026-05-05 20:09 54.06464 28.24947 12900 ft 379 kts 87°
2026-05-05 20:09 54.06702 28.29442 13749 ft 384 kts 86°
2026-05-05 20:10 54.06971 28.33985 14544 ft 387 kts 84°
2026-05-05 20:10 54.07541 28.38487 15339 ft 392 kts 72°
2026-05-05 20:10 54.08632 28.42753 16105 ft 396 kts 60°
2026-05-05 20:10 54.10084 28.46756 16869 ft 399 kts 58°
2026-05-05 20:11 54.11763 28.50532 17621 ft 402 kts 44°
2026-05-05 20:11 54.13941 28.53524 18336 ft 403 kts 29°
2026-05-05 20:11 54.16457 28.55636 19018 ft 404 kts 21°
2026-05-05 20:11 54.19028 28.57604 19705 ft 407 kts 22°
2026-05-05 20:12 54.21621 28.59598 20374 ft 411 kts 22°
2026-05-05 20:12 54.24232 28.61614 21030 ft 414 kts 22°
2026-05-05 20:12 54.26868 28.63656 21701 ft 417 kts 22°
2026-05-05 20:12 54.29520 28.65715 22345 ft 420 kts 22°
2026-05-05 20:13 54.32193 28.67795 22985 ft 424 kts 22°
2026-05-05 20:13 54.34890 28.69896 23594 ft 427 kts 22°
2026-05-05 20:13 54.37607 28.72015 24118 ft 431 kts 22°
2026-05-05 20:13 54.40343 28.74152 24628 ft 434 kts 22°
2026-05-05 20:14 54.43099 28.76309 25142 ft 437 kts 22°
2026-05-05 20:14 54.45846 28.78612 25569 ft 445 kts 28°
2026-05-05 20:14 54.48309 28.81893 26035 ft 452 kts 43°
2026-05-05 20:14 54.50290 28.86123 26509 ft 457 kts 57°
2026-05-05 20:15 54.51773 28.90905 26957 ft 461 kts 64°
2026-05-05 20:15 54.53124 28.95935 27409 ft 464 kts 65°
2026-05-05 20:15 54.54462 29.01004 27833 ft 467 kts 65°
2026-05-05 20:15 54.55831 29.06095 28271 ft 470 kts 65°
2026-05-05 20:16 54.57234 29.11202 28670 ft 473 kts 64°
2026-05-05 20:16 54.58658 29.16328 29074 ft 476 kts 64°
2026-05-05 20:16 54.60096 29.21481 29516 ft 476 kts 64°
2026-05-05 20:16 54.61533 29.26625 29969 ft 479 kts 64°
2026-05-05 20:17 54.62985 29.31836 30204 ft 483 kts 64°
2026-05-05 20:17 54.64442 29.37079 30571 ft 485 kts 64°
2026-05-05 20:17 54.65901 29.42345 30922 ft 487 kts 64°
2026-05-05 20:17 54.67470 29.47532 31324 ft 487 kts 58°
2026-05-05 20:18 54.69391 29.52345 31769 ft 486 kts 51°
2026-05-05 20:18 54.71476 29.56941 32204 ft 485 kts 51°
2026-05-05 20:18 54.73543 29.61543 32646 ft 484 kts 51°
2026-05-05 20:18 54.75605 29.66154 33082 ft 484 kts 51°
2026-05-05 20:19 54.77660 29.70758 33509 ft 483 kts 51°
2026-05-05 20:19 54.79724 29.75390 33730 ft 487 kts 51°
2026-05-05 20:19 54.81797 29.80044 34064 ft 487 kts 51°
2026-05-05 20:19 54.83861 29.84686 34426 ft 486 kts 51°
2026-05-05 20:20 54.85893 29.89265 34762 ft 485 kts 51°
2026-05-05 20:20 54.87949 29.93906 35085 ft 485 kts 51°
2026-05-05 20:20 54.90002 29.98549 35408 ft 484 kts 51°
2026-05-05 20:20 54.92049 30.03188 35720 ft 483 kts 51°
2026-05-05 20:21 54.94089 30.07820 36018 ft 483 kts 51°
2026-05-05 20:21 54.96129 30.12461 36313 ft 482 kts 52°
2026-05-05 20:21 54.98164 30.17098 36604 ft 482 kts 52°
2026-05-05 20:21 55.00195 30.21736 36885 ft 481 kts 52°
2026-05-05 20:22 55.02224 30.26376 37163 ft 481 kts 52°
2026-05-05 20:22 55.04247 30.31012 37436 ft 480 kts 52°
2026-05-05 20:22 55.06269 30.35656 37697 ft 480 kts 52°
2026-05-05 20:22 55.08287 30.40297 37948 ft 480 kts 52°
2026-05-05 20:23 55.10296 30.44927 38249 ft 477 kts 52°
2026-05-05 20:23 55.12296 30.49544 38513 ft 476 kts 52°
2026-05-05 20:23 55.14291 30.54160 38682 ft 477 kts 52°
2026-05-05 20:24 55.18301 30.63464 38827 ft 479 kts 52°
2026-05-05 20:24 55.22270 30.72708 38837 ft 477 kts 52°
2026-05-05 20:25 55.26125 30.82182 38838 ft 478 kts 58°
2026-05-05 20:25 55.29128 30.92591 38836 ft 479 kts 68°
2026-05-05 20:26 55.31312 31.03624 38834 ft 480 kts 72°
2026-05-05 20:26 55.33460 31.14753 38841 ft 482 kts 72°
2026-05-05 20:27 55.35587 31.25924 38834 ft 481 kts 72°
2026-05-05 20:27 55.37683 31.37077 38836 ft 481 kts 72°
2026-05-05 20:28 55.39767 31.48247 38832 ft 479 kts 72°
2026-05-05 20:28 55.41833 31.59371 38838 ft 478 kts 72°
2026-05-05 20:29 55.43891 31.70527 38837 ft 480 kts 72°
2026-05-05 20:29 55.45942 31.81707 38836 ft 479 kts 73°
2026-05-05 20:30 55.47981 31.92897 38843 ft 480 kts 73°
2026-05-05 20:30 55.50012 32.04104 38843 ft 480 kts 73°
2026-05-05 20:31 55.52018 32.15247 38842 ft 480 kts 73°
2026-05-05 20:31 55.54030 32.26484 38846 ft 480 kts 73°
2026-05-05 20:32 55.56031 32.37729 38844 ft 480 kts 73°
2026-05-05 20:32 55.58021 32.48986 38847 ft 480 kts 73°
2026-05-05 20:33 55.60001 32.60256 38847 ft 480 kts 73°
2026-05-05 20:33 55.61971 32.71540 38845 ft 480 kts 73°
2026-05-05 20:34 55.63931 32.82834 38846 ft 480 kts 73°
2026-05-05 20:34 55.65880 32.94136 38847 ft 480 kts 73°
2026-05-05 20:35 55.67821 33.05464 38838 ft 481 kts 73°
2026-05-05 20:35 55.69751 33.16803 38840 ft 481 kts 74°
2026-05-05 20:36 55.71661 33.28074 38845 ft 480 kts 73°
2026-05-05 20:36 55.73566 33.39426 38847 ft 480 kts 74°
2026-05-05 20:37 55.75461 33.50777 38846 ft 480 kts 74°
2026-05-05 20:37 55.77347 33.62150 38857 ft 480 kts 74°
2026-05-05 20:38 55.79226 33.73548 38835 ft 481 kts 74°
2026-05-05 20:38 55.81095 33.84964 38836 ft 481 kts 74°
2026-05-05 20:39 55.82956 33.96406 38689 ft 483 kts 74°
2026-05-05 20:39 55.83884 34.02140 38454 ft 482 kts 74°
2026-05-05 20:39 55.84808 34.07871 38145 ft 481 kts 74°
2026-05-05 20:39 55.85725 34.13578 37861 ft 479 kts 74°
2026-05-05 20:40 55.86640 34.19285 37579 ft 479 kts 74°
2026-05-05 20:40 55.87553 34.25006 36991 ft 483 kts 74°
2026-05-05 20:40 55.88434 34.30706 36318 ft 484 kts 77°
2026-05-05 20:40 55.89065 34.36602 35567 ft 485 kts 83°
2026-05-05 20:41 55.89366 34.42587 34806 ft 486 kts 89°
2026-05-05 20:41 55.89464 34.48620 33989 ft 489 kts 89°
2026-05-05 20:41 55.89576 34.54674 33153 ft 490 kts 88°
2026-05-05 20:41 55.89691 34.60749 32295 ft 490 kts 88°
2026-05-05 20:42 55.89804 34.66827 31427 ft 491 kts 89°
2026-05-05 20:42 55.89913 34.72940 30386 ft 496 kts 89°
2026-05-05 20:42 55.90018 34.79116 29376 ft 499 kts 89°
2026-05-05 20:42 55.90120 34.85270 28674 ft 493 kts 89°
2026-05-05 20:43 55.90217 34.91301 28283 ft 481 kts 89°
2026-05-05 20:43 55.90309 34.97208 27678 ft 474 kts 89°
2026-05-05 20:43 55.90397 35.03057 27056 ft 469 kts 89°
2026-05-05 20:43 55.90482 35.08833 26446 ft 464 kts 89°
2026-05-05 20:44 55.90567 35.14546 25848 ft 459 kts 89°
2026-05-05 20:44 55.90650 35.20209 25194 ft 457 kts 89°
2026-05-05 20:44 55.90729 35.25848 24617 ft 453 kts 89°
2026-05-05 20:44 55.90805 35.31438 23959 ft 451 kts 89°
2026-05-05 20:45 55.90947 35.42545 22709 ft 444 kts 89°
2026-05-05 20:45 55.91012 35.47949 22098 ft 440 kts 90°
2026-05-05 20:45 55.91076 35.53370 21479 ft 435 kts 90°
2026-05-05 20:46 55.91136 35.58736 20861 ft 432 kts 90°
2026-05-05 20:46 55.91194 35.64064 20248 ft 428 kts 90°
2026-05-05 20:46 55.91248 35.69354 19641 ft 425 kts 90°
2026-05-05 20:46 55.91300 35.74604 19017 ft 422 kts 90°
2026-05-05 20:47 55.91349 35.79830 18372 ft 421 kts 90°
2026-05-05 20:47 55.91434 35.85016 17756 ft 418 kts 86°
2026-05-05 20:47 55.91801 35.90130 17143 ft 414 kts 83°
2026-05-05 20:47 55.92196 35.95184 16543 ft 410 kts 83°
2026-05-05 20:48 55.92583 36.00192 15947 ft 406 kts 83°
2026-05-05 20:48 55.92962 36.05163 15353 ft 403 kts 83°
2026-05-05 20:48 55.93335 36.10096 14738 ft 401 kts 83°
2026-05-05 20:48 55.93930 36.14929 14170 ft 399 kts 69°
2026-05-05 20:49 55.95289 36.19176 13679 ft 391 kts 48°
2026-05-05 20:49 55.96559 36.21377 13532 ft 379 kts 34°
2026-05-05 20:49 55.98848 36.23577 13296 ft 373 kts 16°
2026-05-05 20:49 56.01319 36.24974 13040 ft 371 kts 11°
2026-05-05 20:50 56.03785 36.26283 12787 ft 369 kts 13°
2026-05-05 20:50 56.06227 36.27717 12408 ft 368 kts 14°
2026-05-05 20:50 56.08592 36.29257 12259 ft 356 kts 16°
2026-05-05 20:50 56.10861 36.30827 12117 ft 343 kts 17°
2026-05-05 20:51 56.13038 36.32378 11974 ft 331 kts 17°
2026-05-05 20:51 56.15154 36.33899 11622 ft 326 kts 17°
2026-05-05 20:51 56.17188 36.35730 11199 ft 329 kts 28°
2026-05-05 20:51 56.19042 36.38155 10776 ft 330 kts 33°
2026-05-05 20:52 56.20871 36.40629 10349 ft 329 kts 33°
2026-05-05 20:52 56.22700 36.43087 9924 ft 328 kts 33°
2026-05-05 20:52 56.24494 36.45511 9510 ft 327 kts 35°
2026-05-05 20:52 56.25977 36.48590 9124 ft 328 kts 60°
2026-05-05 20:53 56.26755 36.52402 8751 ft 324 kts 75°
2026-05-05 20:53 56.27337 36.56309 8332 ft 322 kts 76°
2026-05-05 20:53 56.27911 36.60198 7941 ft 320 kts 76°
2026-05-05 20:53 56.28479 36.64052 7604 ft 316 kts 76°
2026-05-05 20:54 56.29043 36.67861 7220 ft 314 kts 76°
2026-05-05 20:54 56.29597 36.71606 7041 ft 305 kts 75°
2026-05-05 20:54 56.29992 36.75341 6960 ft 305 kts 92°
2026-05-05 20:54 56.29587 36.79028 6897 ft 299 kts 116°
2026-05-05 20:55 56.28758 36.82451 6820 ft 299 kts 118°
2026-05-05 20:55 56.27888 36.85867 6714 ft 301 kts 119°
2026-05-05 20:55 56.27018 36.89285 6592 ft 299 kts 118°
2026-05-05 20:55 56.26167 36.92685 6475 ft 298 kts 118°
2026-05-05 20:56 56.25322 36.96094 6354 ft 298 kts 117°
2026-05-05 20:56 56.24484 36.99499 6231 ft 297 kts 117°
2026-05-05 20:56 56.23650 37.02889 6106 ft 296 kts 117°
2026-05-05 20:56 56.22819 37.06268 5976 ft 295 kts 117°
2026-05-05 20:57 56.21989 37.09636 5864 ft 295 kts 117°
2026-05-05 20:57 56.21160 37.12991 5737 ft 294 kts 117°
2026-05-05 20:57 56.20329 37.16346 5614 ft 293 kts 117°
2026-05-05 20:57 56.19501 37.19687 5489 ft 293 kts 117°
2026-05-05 20:58 56.18763 37.22661 5369 ft 292 kts 117°
2026-05-05 20:58 56.17950 37.25931 5257 ft 290 kts 117°
2026-05-05 20:58 56.17140 37.29189 5186 ft 281 kts 117°
2026-05-05 20:58 56.16400 37.32370 5088 ft 272 kts 108°
2026-05-05 20:59 56.16299 37.35685 4965 ft 265 kts 80°
2026-05-05 20:59 56.16756 37.38839 4799 ft 258 kts 75°
2026-05-05 20:59 56.17235 37.41965 4663 ft 263 kts 75°
2026-05-05 20:59 56.17715 37.45114 4538 ft 260 kts 75°
2026-05-05 21:00 56.18185 37.48227 4404 ft 258 kts 75°
2026-05-05 21:00 56.18651 37.51337 4272 ft 257 kts 75°
2026-05-05 21:00 56.19115 37.54444 4146 ft 257 kts 75°
2026-05-05 21:00 56.19416 37.57564 4031 ft 250 kts 95°
2026-05-05 21:01 56.18934 37.60401 3932 ft 231 kts 128°
2026-05-05 21:01 56.17913 37.62473 3836 ft 215 kts 140°
2026-05-05 21:01 56.16850 37.64309 3681 ft 207 kts 141°
2026-05-05 21:01 56.15804 37.66090 3652 ft 213 kts 141°
2026-05-05 21:02 56.14747 37.67931 3583 ft 211 kts 140°
2026-05-05 21:02 56.13710 37.69787 3516 ft 211 kts 139°
2026-05-05 21:02 56.12681 37.71657 3452 ft 211 kts 138°
2026-05-05 21:02 56.11655 37.73534 3384 ft 210 kts 138°
2026-05-05 21:03 56.10655 37.75372 3321 ft 200 kts 138°
2026-05-05 21:03 56.09649 37.76965 3152 ft 193 kts 157°
2026-05-05 21:03 56.08374 37.77313 3092 ft 185 kts 196°
2026-05-05 21:03 56.07148 37.76651 3040 ft 184 kts 202°
2026-05-05 21:04 56.05936 37.75932 2982 ft 184 kts 202°
2026-05-05 21:04 56.04724 37.75215 2920 ft 183 kts 202°
2026-05-05 21:04 56.03517 37.74511 2873 ft 180 kts 202°
2026-05-05 21:04 56.02375 37.73728 2767 ft 174 kts 217°
2026-05-05 21:05 56.01655 37.72062 2724 ft 171 kts 250°
2026-05-05 21:05 56.01344 37.70007 2673 ft 172 kts 258°
2026-05-05 21:05 56.01074 37.67867 2621 ft 182 kts 257°
2026-05-05 21:05 56.00774 37.65707 2548 ft 173 kts 255°
2026-05-05 21:06 56.00459 37.63595 2503 ft 178 kts 255°
2026-05-05 21:06 56.00169 37.61653 2498 ft 144 kts 255°
2026-05-05 21:06 55.99928 37.60053 2429 ft 136 kts 255°
2026-05-05 21:06 55.99682 37.58407 2257 ft 133 kts 255°
2026-05-05 21:07 55.99449 37.56855 2085 ft 129 kts 255°
2026-05-05 21:07 55.99217 37.55312 1917 ft 129 kts 255°
2026-05-05 21:07 55.98985 37.53767 1754 ft 129 kts 255°
2026-05-05 21:07 55.98753 37.52220 1583 ft 129 kts 255°
2026-05-05 21:08 55.98520 37.50663 1406 ft 130 kts 255°
2026-05-05 21:08 55.98285 37.49101 1254 ft 131 kts 255°
2026-05-05 21:08 55.98049 37.47528 1079 ft 132 kts 255°
2026-05-05 21:08 55.97812 37.45946 905 ft 132 kts 255°
2026-05-05 21:09 55.97574 37.44361 731 ft 132 kts 256°
2026-05-05 21:09 55.97341 37.42812 643 ft 119 kts 252°
2026-05-05 21:09 55.97178 37.41758 639 ft 43 kts 255°
2026-05-05 21:09 55.97158 37.41624 637 ft 9 kts 255°
2026-05-05 21:10 55.97136 37.41473 642 ft 15 kts 254°
2026-05-05 21:10 55.97051 37.41404 641 ft 15 kts 167°
2026-05-05 21:10 55.96938 37.41450 639 ft 18 kts 166°
2026-05-05 21:10 55.96818 37.41480 639 ft 14 kts 165°
2026-05-05 21:11 55.96756 37.41517 639 ft 0 kts 166°
2026-05-05 21:11 55.96750 37.41519 641 ft 0 kts 166°